[Date Prev][Date Next][Thread Prev][Thread Next] - [Date Index][Thread Index][Author Index]

2 LIne ISS Keps 10-8



ISS
1 25544U 98067A   02281.17449935  .00049558  00000-0  57157-3 0  2302
2 25544  51.6332 205.5592 0017503 346.9665 180.3556 15.61248331221653


----
Via the sarex mailing list at AMSAT.ORG courtesy of AMSAT-NA.
To unsubscribe, send "unsubscribe sarex" to Majordomo@amsat.org



AMSAT Top AMSAT Home